Location: Unspecified
(22.6800°N, 112.2000°E)
Time: 08:02:03
(UTC+08:00)

X-37B - Pass Details

Date: 23 June 2021
Orbit: 383 x 392 km, 45.0° (Epoch: 01 July)

Event Time Altitude Azimuth Distance (km) Brightness Sun altitude
Rises 04:13:39 0° 323° (NW) 2,253 4.5 -19.4°
Reaches altitude 10° 04:15:52 10° 335° (NNW) 1,401 3.5 -18.9°
Maximum altitude 04:18:40 29° 38° (NE) 739 2.7 -18.4°
Drops below altitude 10° 04:21:29 10° 101° (E) 1,401 4.0 -17.9°
Sets 04:23:42 0° 113° (ESE) 2,255 4.9 -17.5°
